Regional Weather Roundup
Issued by NWS Little Rock, AR

Home | Current Version | Previous Version | Graphics & Text | Print | Product List | Glossary On
Versions: 1 2 3 4 5 6 7 8 9 10 11 12 13 14 15 16 17 18 19 20 21 22 23 24 25 26 27
000
ASUS44 KLZK 021605
RWRLZK

WEATHER ROUNDUP FOR ARKANSAS
NATIONAL WEATHER SERVICE LITTLE ROCK AR
1100 AM CDT MON MAY 02 2016

NOTE: "FAIR" INDICATES FEW OR NO CLOUDS BELOW 12,000 FEET WITH NO
SIGNIFICANT WEATHER AND/OR OBSTRUCTIONS TO VISIBILITY.

ARZ001-003-010-029-021700-
NORTHWEST ARKANSAS

CITY           SKY/WX    TMP DP  RH WIND       PRES   REMARKS
FAYETTEVILLE   CLOUDY    53  49  86 NW8       30.11R
FORT SMITH     PTSUNNY   61  49  64 VRB3      30.10S
HARRISON       CLOUDY    54  47  77 N7        30.10R
BENTONVILLE    CLOUDY    55  45  67 CALM      30.11S
ROGERS         CLOUDY    55  46  71 CALM      30.11S
SILOAM SPGS    CLOUDY    55  43  62 N12       30.12R
HIGHFILL       PTSUNNY   56  49  77 N3        30.10S
SPRINGDALE     CLOUDY    54  48  82 N9        30.12S
$$

ARZ004-005-016-021700-
NORTH CENTRAL ARKANSAS

CITY           SKY/WX    TMP DP  RH WIND       PRES   REMARKS
BATESVILLE     MOSUNNY   63  48  59 CALM      30.06S
FLIPPIN        PTSUNNY  N/A N/A N/A NW5       30.05F
MTN HOME       PTSUNNY   58  47  66 W3        30.06F
$$

ARZ040-041-021700-
WEST CENTRAL ARKANSAS

CITY           SKY/WX    TMP DP  RH WIND       PRES   REMARKS
MENA           CLOUDY    61  54  77 CALM      30.10R
MOUNT IDA      CLOUDY    61  51  70 CALM      30.05R
$$

ARZ009-017-025-026-028-021700-
NORTHEAST ARKANSAS

CITY           SKY/WX    TMP DP  RH WIND       PRES   REMARKS
CORNING          N/A     61  50  67 N7        30.05F
JONESBORO      PTSUNNY   63  52  67 VRB5      30.04S
NEWPORT        MOSUNNY   64  53  67 N9        30.06R
WALNUT RIDGE   MOSUNNY   63  48  59 N6        30.05S
BLYTHEVILLE    CLOUDY    63  55  75 NE8       30.04S
NW BLYTHEVILLE PTSUNNY   61  55  82 N5        30.04R
$$

ARZ022-023-033-042-044-021700-
CENTRAL ARKANSAS

CITY           SKY/WX    TMP DP  RH WIND       PRES   REMARKS
LITTLE ROCK    PTSUNNY   63  52  67 NE3       30.09R
N LITTLE ROCK    N/A     62  55  77 NE5       30.07R
SEARCY         MOSUNNY   64  54  68 VRB3      30.08R
HOT SPRINGS    CLOUDY    63  51  65 E5        30.07S
RUSSELLVILLE   CLOUDY    61  49  64 VRB3      30.08R
$$

ARZ036-021700-
EAST ARKANSAS

CITY           SKY/WX    TMP DP  RH WIND       PRES   REMARKS
WEST MEMPHIS   CLOUDY    60  57  89 N9        30.01S
$$

ARZ050-053-066-070-073-021700-
SOUTHWEST ARKANSAS

CITY           SKY/WX    TMP DP  RH WIND       PRES   REMARKS
ARKADELPHIA    PTSUNNY   62  59  90 NE7       30.10R
CAMDEN         LGT RAIN  57  54  88 N6        30.09R
TEXARKANA      CLOUDY    60  55  83 NE5       30.09R
EL DORADO      LGT RAIN  58  57  97 N7        30.08F FOG
DE QUEEN       LGT RAIN  58  56  93 W8        30.09S
$$

ARZ056-057-069-021700-
SOUTHEAST ARKANSAS

CITY           SKY/WX    TMP DP  RH WIND       PRES   REMARKS
PINE BLUFF     CLOUDY    60  55  83 N10       30.06S
STUTTGART      CLOUDY    61  52  72 N9        30.06S
MONTICELLO     TSTM      59  56  89 N6        30.04R

$$






USA.gov is the U.S. government's official web portal to all federal, state and local government web resources and services.